Location: Cheyres
(46.8153°N, 6.7877°E)
Time: 23:47:01
(UTC+00:00)

USA 305 - Pass Details

Date: 11 May 2021
Orbit: 567 x 573 km, 54.0° (Epoch: 07 May)

Event Time Altitude Azimuth Distance (km) Brightness Sun altitude
Rises 20:21:45 0° 301° (WNW) 2,774 8.1 -12.6°
Reaches altitude 10° 20:24:02 10° 305° (NW) 1,875 7.0 -12.9°
Maximum altitude 20:28:15 58° 25° (NNE) 669 3.3 -13.4°
Enters shadow 20:31:23 17° 102° (ESE) 1,468 4.5 -13.7°
